This is the latest recevied weather packets stored in our database for station/object SQ9NFI-4. If no packets are shown the sender has not sent any weather packets the latest 10 day(s).
| Time | Temp. | Humidity | Pressure | Rain* | Wind** | Luminosity | Snow |
|---|---|---|---|---|---|---|---|
| 1777837816 | 11.11° C | 80% | 1016.9 hPa | 0 mm | - | 0 W/m² | - |
| 1777837516 | 11.67° C | 79% | 1016.9 hPa | 0 mm | - | 0 W/m² | - |
| 1777837216 | 11.67° C | 80% | 1016.9 hPa | 0 mm | - | 0 W/m² | - |
| 1777836916 | 11.67° C | 79% | 1016.9 hPa | 0 mm | - | 0 W/m² | - |
| 1777836616 | 11.67° C | 77% | 1016.9 hPa | 0 mm | - | 0 W/m² | - |
| 1777836316 | 12.22° C | 76% | 1016.6 hPa | 0 mm | - | 0 W/m² | - |
| 1777836016 | 12.22° C | 78% | 1016.6 hPa | 0 mm | - | 0 W/m² | - |
| 1777835716 | 12.78° C | 76% | 1016.6 hPa | 0 mm | - | 0 W/m² | - |
| 1777835416 | 12.78° C | 68% | 1016.6 hPa | 0 mm | - | 0 W/m² | - |
| 1777835116 | 13.33° C | 77% | 1016.6 hPa | 0 mm | - | 0 W/m² | - |
| 1777834816 | 13.33° C | 66% | 1016.6 hPa | 0 mm | - | 0 W/m² | - |
| 1777834516 | 13.89° C | 66% | 1016.6 hPa | 0 mm | - | 0 W/m² | - |
| 1777834216 | 13.89° C | 69% | 1016.3 hPa | 0 mm | - | 0 W/m² | - |
| 1777833916 | 14.44° C | 66% | 1016.3 hPa | 0 mm | - | 0 W/m² | - |
| 1777833616 | 14.44° C | 62% | 1016.3 hPa | 0 mm | - | 0 W/m² | - |
| 1777833316 | 14.44° C | 65% | 1016.3 hPa | 0 mm | - | 0 W/m² | - |
| 1777833016 | 15.56° C | 71% | 1016.3 hPa | 0 mm | - | 0 W/m² | - |
| 1777832716 | 15.56° C | 59% | 1015.9 hPa | 0 mm | - | 0 W/m² | - |
| 1777832416 | 16.11° C | 62% | 1015.9 hPa | 0 mm | - | 1 W/m² | - |
| 1777832116 | 16.11° C | 60% | 1015.9 hPa | 0 mm | - | 1 W/m² | - |
| 1777831816 | 16.67° C | 52% | 1015.9 hPa | 0 mm | - | 2 W/m² | - |
| 1777831516 | 17.78° C | 56% | 1015.9 hPa | 0 mm | - | 3 W/m² | - |
| 1777831216 | 18.33° C | 53% | 1015.9 hPa | 0 mm | - | 5 W/m² | - |
| 1777830916 | 18.89° C | 44% | 1015.9 hPa | 0 mm | - | 7 W/m² | - |
| 1777830616 | 19.44° C | 42% | 1015.2 hPa | 0 mm | - | 9 W/m² | - |
* Rain latest hour (hover to see other rain measurements)
** Current wind speed in m/s (hover to see current wind gust speed)